Greenville Downtown, SC

2:21 PM EDT on March 23, 2017 (GMT -0400)
Greenville Downtown

Weather History for KGMU - May, 2012

Change the Weather History Date:

Sunday, May 13, 2012

  Actual Average Record
Temperature  
Mean Temperature 62 °F -  
Max Temperature 64 °F 77 °F 90 °F (2000)
Min Temperature 60 °F 56 °F 46 °F (2006)
Degree Days  
Heating Degree Days 3    
Growing Degree Days 12 (Base 50)    
Moisture  
Dew Point 60 °F    
Average Humidity 90    
Maximum Humidity 100    
Minimum Humidity 72    
Precipitation  
Precipitation 0.81 in - - ()
Sea Level Pressure  
Sea Level Pressure 30.15 in    
Wind  
Wind Speed 4 mph (East)    
Max Wind Speed 9 mph    
Max Gust Speed -    
Visibility 6 miles    
Events Rain    
Averages and records for this station are not official NWS values.
T = Trace of Precipitation, MM = Missing Value Source: NWS Daily Summary

Daily Weather History Graph

Daily Weather History Graph

Search for Another Location

Airport or City:

Trip Planner

Search our weather history database for the weather conditions in past years. The results will help you decide how hot, cold, wet, or windy it might be!

Date:

Astronomy

May. 13, 2012 Rise Set
Actual Time 6:27 AM EDT 8:24 PM EDT
Civil Twilight 5:59 AM EDT 8:52 PM EDT
Nautical Twilight 5:25 AM EDT 9:26 PM EDT
Astronomical Twilight 4:49 AM EDT 10:02 PM EDT
Moon 2:15 AM EDT (5/13) 1:59 PM EDT (5/13)
Length of Visible Light 14h 53m
Length of Day
13h 57m
Last Quarter, 42% of the Moon is Illuminated
May 13
Last Quarter
May 20
New
May 28
First Quarter
Jun 4
Full
Jun 11
Last Quarter

Hourly Weather History & Observations

Time (EDT) Temp. Dew Point Humidity Pressure Visibility Wind Dir Wind Speed Gust Speed Precip Events Conditions
12:53 AM 64.0 °F 55.0 °F 73% 30.24 in 10.0 mi East 4.6 mph - N/A   Clear
1:53 AM 63.0 °F 54.0 °F 72% 30.24 in 10.0 mi East 3.5 mph - N/A   Clear
2:53 AM 62.1 °F 54.0 °F 75% 30.22 in 10.0 mi East 3.5 mph - N/A   Clear
3:53 AM 63.0 °F 55.0 °F 75% 30.21 in 10.0 mi Calm Calm - N/A   Clear
4:53 AM 60.1 °F 55.9 °F 86% 30.22 in 10.0 mi NNE 4.6 mph - N/A   Overcast
5:53 AM 61.0 °F 55.9 °F 83% 30.22 in 10.0 mi Calm Calm - N/A   Scattered Clouds
6:53 AM 60.1 °F 55.9 °F 86% 30.22 in 10.0 mi North 5.8 mph - N/A   Overcast
8:40 AM 62.6 °F 55.4 °F 77% 30.25 in 10.0 mi Calm Calm - N/A   Overcast
8:53 AM 63.0 °F 55.9 °F 78% 30.23 in 10.0 mi Calm Calm - N/A   Overcast
9:53 AM 63.0 °F 57.0 °F 81% 30.23 in 10.0 mi East 5.8 mph - 0.00 in Rain Light Rain
10:27 AM 62.6 °F 57.2 °F 82% 30.24 in 8.0 mi ENE 4.6 mph - 0.00 in Rain Light Rain
11:10 AM 62.6 °F 59.0 °F 88% 30.23 in 4.0 mi East 4.6 mph - 0.03 in Rain Rain
11:53 AM 63.0 °F 59.0 °F 87% 30.22 in 4.0 mi East 4.6 mph - 0.05 in Rain Light Rain
12:14 PM 64.4 °F 60.8 °F 88% 30.22 in 6.0 mi Variable 3.5 mph - 0.00 in Rain Light Rain
12:53 PM 64.9 °F 62.1 °F 90% 30.19 in 7.0 mi ESE 4.6 mph - 0.01 in Rain Light Rain
1:29 PM 64.4 °F 60.8 °F 88% 30.20 in 8.0 mi ESE 6.9 mph - 0.00 in Rain Light Rain
1:53 PM 64.0 °F 61.0 °F 90% 30.18 in 6.0 mi SSE 5.8 mph - 0.01 in Rain Light Rain
2:13 PM 64.4 °F 62.6 °F 94% 30.19 in 8.0 mi ESE 3.5 mph - 0.01 in Rain Light Rain
2:27 PM 64.4 °F 60.8 °F 88% 30.18 in 7.0 mi East 3.5 mph - 0.01 in Rain Light Rain
2:38 PM 64.4 °F 60.8 °F 88% 30.18 in 9.0 mi Calm Calm - 0.02 in Rain Light Rain
2:53 PM 64.9 °F 61.0 °F 87% 30.17 in 5.0 mi ESE 3.5 mph - 0.03 in Rain Rain
3:05 PM 64.4 °F 62.6 °F 94% 30.17 in 3.0 mi East 3.5 mph - 0.01 in Rain Rain
3:27 PM 64.4 °F 60.8 °F 88% 30.16 in 3.0 mi ENE 3.5 mph - 0.04 in Rain Rain
3:40 PM 64.4 °F 60.8 °F 88% 30.16 in 4.0 mi Calm Calm - 0.05 in Rain Light Rain
3:53 PM 64.0 °F 61.0 °F 90% 30.14 in 6.0 mi East 5.8 mph - 0.06 in Rain Light Rain
4:05 PM 64.4 °F 60.8 °F 88% 30.14 in 8.0 mi East 4.6 mph - 0.00 in Rain Light Rain
4:38 PM 64.4 °F 60.8 °F 88% 30.14 in 2.5 mi ESE 4.6 mph - 0.03 in Rain Rain
4:49 PM 64.4 °F 62.6 °F 94% 30.13 in 4.0 mi Calm Calm - 0.03 in Rain Light Rain
4:53 PM 64.0 °F 62.1 °F 93% 30.12 in 5.0 mi ENE 4.6 mph - 0.03 in Rain Light Rain
5:05 PM 64.4 °F 60.8 °F 88% 30.13 in 10.0 mi East 3.5 mph - 0.00 in Rain Light Rain
5:12 PM 64.4 °F 60.8 °F 88% 30.12 in 7.0 mi East 3.5 mph - 0.00 in Rain Light Rain
5:22 PM 64.4 °F 60.8 °F 88% 30.13 in 5.0 mi NE 4.6 mph - 0.01 in Rain Light Rain
5:29 PM 64.4 °F 60.8 °F 88% 30.13 in 2.5 mi ENE 4.6 mph - 0.02 in Rain Light Rain
5:34 PM 64.4 °F 62.6 °F 94% 30.12 in 1.5 mi East 5.8 mph - 0.04 in Rain Heavy Rain
5:41 PM 64.4 °F 62.6 °F 94% 30.12 in 1.5 mi East 5.8 mph - 0.04 in Rain Light Rain
5:44 PM 64.4 °F 60.8 °F 88% 30.12 in 2.5 mi Variable 4.6 mph - 0.05 in Rain Light Rain
5:48 PM 64.4 °F 60.8 °F 88% 30.13 in 5.0 mi ESE 4.6 mph - 0.05 in Rain Light Rain
5:53 PM 64.0 °F 62.1 °F 93% 30.11 in 8.0 mi East 3.5 mph - 0.05 in Rain Light Rain
6:11 PM 64.4 °F 60.8 °F 88% 30.12 in 2.5 mi Calm Calm - 0.00 in Rain Light Rain
6:53 PM 64.0 °F 61.0 °F 90% 30.10 in 6.0 mi East 5.8 mph - 0.01 in Rain Light Rain
7:14 PM 64.4 °F 60.8 °F 88% 30.11 in 5.0 mi East 4.6 mph - 0.00 in Rain Light Rain
7:32 PM 62.6 °F 60.8 °F 94% 30.11 in 2.5 mi ENE 5.8 mph - 0.03 in Rain Rain
7:42 PM 62.6 °F 62.6 °F 100% 30.11 in 2.0 mi Calm Calm - 0.05 in Rain Rain
7:48 PM 62.6 °F 60.8 °F 94% 30.11 in 1.8 mi ENE 5.8 mph - 0.08 in Rain Heavy Rain
7:53 PM 63.0 °F 61.0 °F 93% 30.10 in 1.2 mi East 4.6 mph - 0.13 in Rain Heavy Rain
8:03 PM 62.6 °F 62.6 °F 100% 30.11 in 2.5 mi East 4.6 mph - 0.03 in Rain Heavy Rain
8:10 PM 62.6 °F 60.8 °F 94% 30.11 in 3.0 mi East 5.8 mph - 0.05 in Rain Rain
8:13 PM 62.6 °F 60.8 °F 94% 30.11 in 3.0 mi East 5.8 mph - 0.06 in Rain Rain
8:51 PM 62.6 °F 60.8 °F 94% 30.11 in 5.0 mi ESE 4.6 mph - 0.10 in Rain Heavy Rain
8:53 PM 63.0 °F 61.0 °F 93% 30.10 in 4.0 mi ESE 4.6 mph - 0.11 in Rain Heavy Rain
9:02 PM 62.6 °F 60.8 °F 94% 30.11 in 4.0 mi SE 5.8 mph - 0.03 in Rain Heavy Rain
9:21 PM 62.6 °F 60.8 °F 94% 30.11 in 4.0 mi SE 4.6 mph - 0.07 in Rain Rain
9:43 PM 62.6 °F 62.6 °F 100% 30.11 in 4.0 mi East 5.8 mph - 0.14 in Rain Rain
9:53 PM 63.0 °F 62.1 °F 97% 30.09 in 6.0 mi East 5.8 mph - 0.14 in Rain Light Rain
9:58 PM 62.6 °F 62.6 °F 100% 30.11 in 5.0 mi East 4.6 mph - 0.01 in Rain Light Rain
10:23 PM 62.6 °F 62.6 °F 100% 30.11 in 1.8 mi NNW 3.5 mph - 0.11 in Rain Heavy Rain
10:34 PM 62.6 °F 62.6 °F 100% 30.11 in 3.0 mi North 8.1 mph - 0.14 in Rain Light Rain
10:46 PM 62.6 °F 60.8 °F 94% 30.10 in 7.0 mi East 4.6 mph - 0.15 in Rain Light Rain
10:53 PM 63.0 °F 62.1 °F 97% 30.09 in 10.0 mi Variable 4.6 mph - 0.15 in Rain Light Rain
11:42 PM 62.6 °F 60.8 °F 94% 30.09 in 6.0 mi North 6.9 mph - 0.03 in Rain Light Rain
11:53 PM 61.0 °F 60.1 °F 97% 30.07 in 10.0 mi NNE 9.2 mph - 0.03 in Rain Light Rain